Location: Dodgeville
(42.9600°N, 90.1300°W)
Time: 14:25:25
(UTC-05:00)

Amateur Radio Satellites - All Passes

Search period start: 24 July 2014 13:55
Search period end: 25 July 2014 13:55
Location: Dodgeville, 42.9600°N, 90.1300°W

Satellite Date Start Highest point End Downlink Frequencies (MHz)
Time Altitude Azimuth
Oscar 19 24 Jul 14:06:35 14:11:37 59° 259° (W) 14:16:41 437.125 CW, 437.150 USB
AO-7 24 Jul 14:10:25 14:15:11 17° 45° (NE) 14:19:58 29.400 - 29.500 MHz
Oscar 16 24 Jul 14:34:46 14:39:17 31° 264° (W) 14:43:49 437.025 USB, Beacon 2401.1428
TMSAT-1 24 Jul 14:35:28 14:40:20 38° 68° (ENE) 14:45:12 436.925 FM
SO-50 24 Jul 14:38:49 14:43:15 63° 307° (NW) 14:47:48 436.795 FM
ITAMSAT 1 24 Jul 14:44:19 14:49:26 56° 259° (W) 14:54:35 435.822 SSB
KITSAT 1 24 Jul 14:47:22 14:54:10 28° 37° (NE) 15:00:55 435.175 FM
Gurwin Techsat 1B 24 Jul 14:56:02 15:01:20 79° 74° (ENE) 15:06:40 435.225 FM
RS-15 24 Jul 14:57:23 15:08:32 84° 121° (ESE) 15:19:30 29.354 - 29.394 USB, Beacon 29.352 USB
AO-27 24 Jul 15:02:35 15:07:24 38° 262° (W) 15:12:16 436.795 MHz FM
AO-Echo 24 Jul 15:02:41 15:07:34 38° 263° (W) 15:12:32 ?
Uribyol 2 24 Jul 15:05:40 15:10:22 34° 263° (W) 15:15:05 436.500 FM
JAS-1B 24 Jul 15:14:55 15:23:27 73° 258° (WSW) 15:33:14 435.800 - 435.900 CW/SSB
Uosat F 24 Jul 15:17:47 15:21:42 23° 63° (ENE) 15:25:37 435.120 FM
UOSAT-12 24 Jul 15:27:46 15:31:51 33° 115° (ESE) 15:36:02 437.025 FM, 437.400 FM
OPAL 24 Jul 15:51:28 15:53:53 13° 92° (E) 15:56:17 ?
AO-7 24 Jul 15:58:12 16:06:26 66° 67° (ENE) 16:14:42 29.400 - 29.500 MHz
Saudisat 1A 24 Jul 16:09:51 16:12:10 14° 35° (NE) 16:14:28 436.775 MHz
TMSAT-1 24 Jul 16:15:46 16:20:19 29° 265° (W) 16:24:53 436.925 FM
SO-50 24 Jul 16:22:47 16:24:45 13° 328° (NNW) 16:26:45 436.795 FM
Gurwin Techsat 1B 24 Jul 16:39:22 16:41:54 13° 271° (W) 16:44:27 435.225 FM
KITSAT 1 24 Jul 16:42:27 16:50:34 86° 240° (WSW) 16:58:38 435.175 FM
Uosat F 24 Jul 16:55:21 17:00:11 46° 261° (W) 17:05:03 435.120 FM
UOSAT-12 24 Jul 17:07:46 17:11:58 34° 313° (NW) 17:16:16 437.025 FM, 437.400 FM
JAS-1B 24 Jul 17:10:48 17:15:44 16° 280° (W) 17:21:01 435.800 - 435.900 CW/SSB
RS-15 24 Jul 17:12:22 17:22:13 36° 327° (NNW) 17:32:03 29.354 - 29.394 USB, Beacon 29.352 USB
JAS-2 24 Jul 17:17:42 17:24:27 34° 63° (ENE) 17:30:55 435.800 - 435.900 CW/SSB, 435.910 FM
OPAL 24 Jul 17:28:14 17:33:17 76° 288° (WNW) 17:38:22 ?
Hamsat 24 Jul 17:42:56 17:46:50 40° 71° (ENE) 17:50:45 145.90 MHz
Saudisat 1A 24 Jul 17:48:03 17:52:30 79° 55° (NE) 17:56:53 436.775 MHz
AO-7 24 Jul 17:52:47 17:59:45 29° 265° (W) 18:06:46 29.400 - 29.500 MHz
SO-67 24 Jul 18:22:02 18:23:58 14° 66° (ENE) 18:25:53 435.3500 MHz FM
KITSAT 1 24 Jul 18:39:49 18:44:48 18° 259° (W) 18:49:46 435.175 FM
JAS-2 24 Jul 19:01:23 19:09:06 58° 260° (W) 19:16:31 435.800 - 435.900 CW/SSB, 435.910 FM
OPAL 24 Jul 19:10:00 19:11:19 11° 306° (NW) 19:12:39 ?
Hamsat 24 Jul 19:20:10 19:22:59 17° 268° (W) 19:25:49 145.90 MHz
Saudisat 1A 24 Jul 19:29:59 19:31:26 12° 252° (WSW) 19:32:53 436.775 MHz
RS-15 24 Jul 19:30:49 19:39:00 23° 2° (N) 19:47:16 29.354 - 29.394 USB, Beacon 29.352 USB
STRAND 1 24 Jul 19:43:25 19:48:31 64° 102° (ESE) 19:53:34 ?
SO-67 24 Jul 19:53:32 19:56:44 35° 263° (W) 19:59:58 435.3500 MHz FM
HO-68 24 Jul 20:02:15 20:08:28 33° 61° (ENE) 20:14:41 435.675 MHz FM
Oscar 11 24 Jul 20:29:47 20:30:44 11° 60° (ENE) 20:31:40 145.825 FM, Beacon 2401.500 USB
UKube-1 24 Jul 21:11:33 21:15:51 61° 73° (ENE) 21:20:10 145.840 MHz, 145.915 MHz
STRAND 1 24 Jul 21:23:52 21:27:12 18° 299° (WNW) 21:30:31 ?
SO-50 24 Jul 21:29:33 21:33:21 23° 42° (NE) 21:37:11 436.795 FM
RS-15 24 Jul 21:45:27 21:55:34 39° 36° (NE) 22:05:54 29.354 - 29.394 USB, Beacon 29.352 USB
HO-68 24 Jul 21:48:55 21:55:53 52° 259° (W) 22:02:52 435.675 MHz FM
Oscar 11 24 Jul 22:01:57 22:06:15 82° 257° (WSW) 22:10:36 145.825 FM, Beacon 2401.500 USB
FUNcube-1 24 Jul 22:10:26 22:14:36 45° 72° (ENE) 22:18:41 145.950 - 145.970 MHz USB
MaSat-1 24 Jul 22:35:04 22:38:57 66° 113° (ESE) 22:43:32 437.345 MHz
UKube-1 24 Jul 22:50:26 22:52:27 13° 269° (W) 22:54:28 145.840 MHz, 145.915 MHz
SO-50 24 Jul 23:09:35 23:14:14 57° 241° (WSW) 23:18:57 436.795 FM
FUNcube-1 24 Jul 23:48:22 23:51:13 17° 268° (W) 23:54:02 145.950 - 145.970 MHz USB
UOSAT-12 24 Jul 23:56:08 00:00:36 39° 48° (NE) 00:05:00 437.025 FM, 437.400 FM
RS-15 24 Jul 23:57:56 00:08:56 76° 241° (WSW) 00:20:20 29.354 - 29.394 USB, Beacon 29.352 USB
Lituanica SAT-1 25 Jul 00:03:20 00:05:20 43° 143° (SE) 00:07:22 437.275 MHz beacon
MaSat-1 25 Jul 00:14:09 00:16:57 17° 316° (NW) 00:19:59 437.345 MHz
PCSat 25 Jul 00:39:18 00:41:43 13° 103° (ESE) 00:44:09 145.825 MHz
ISS 25 Jul 01:07:20 01:10:19 31° 137° (SE) 01:13:20 145.800 FM
Oscar 16 25 Jul 01:09:25 01:09:47 10° 87° (E) 01:10:09 437.025 USB, Beacon 2401.1428
UOSAT-12 25 Jul 01:36:35 01:40:37 28° 246° (WSW) 01:44:35 437.025 FM, 437.400 FM
Lituanica SAT-1 25 Jul 01:36:38 01:38:07 17° 340° (NNW) 01:39:36 437.275 MHz beacon
Sapphire 25 Jul 01:45:22 01:50:30 47° 113° (ESE) 01:55:41 437.095 MHz 1200 baud AX-25 AFSK
AO-40 25 Jul 02:00:44 03:34:38 15° 118° (ESE) 04:31:56 Beacon 2401.320
RS-15 25 Jul 02:12:57 02:19:22 18° 262° (W) 02:25:57 29.354 - 29.394 USB, Beacon 29.352 USB
Oscar 19 25 Jul 02:17:13 02:22:11 46° 99° (E) 02:27:08 437.125 CW, 437.150 USB
PCSat 25 Jul 02:18:56 02:24:21 86° 300° (WNW) 02:29:48 145.825 MHz
ISS 25 Jul 02:43:48 02:46:59 40° 335° (NNW) 02:50:12 145.800 FM
Oscar 16 25 Jul 02:44:41 02:49:52 86° 104° (ESE) 02:55:02 437.025 USB, Beacon 2401.1428
TMSAT-1 25 Jul 02:51:55 02:54:30 14° 89° (E) 02:57:05 436.925 FM
ITAMSAT 1 25 Jul 02:56:18 03:01:20 49° 100° (E) 03:06:19 435.822 SSB
JAS-1B 25 Jul 03:00:43 03:09:42 43° 94° (E) 03:17:34 435.800 - 435.900 CW/SSB
OPAL 25 Jul 03:06:32 03:10:41 28° 63° (ENE) 03:14:51 ?
AO-Echo 25 Jul 03:08:52 03:14:02 69° 102° (ESE) 03:18:58 ?
Gurwin Techsat 1B 25 Jul 03:11:49 03:16:26 29° 95° (E) 03:21:00 435.225 FM
AO-27 25 Jul 03:14:13 03:19:26 73° 103° (ESE) 03:24:35 436.795 MHz FM
Uribyol 2 25 Jul 03:16:50 03:22:02 80° 104° (ESE) 03:27:11 436.500 FM
Sapphire 25 Jul 03:29:26 03:34:07 29° 312° (NW) 03:38:50 437.095 MHz 1200 baud AX-25 AFSK
Oscar 19 25 Jul 03:57:11 04:01:14 24° 296° (WNW) 04:05:17 437.125 CW, 437.150 USB
AO-7 25 Jul 04:00:23 04:05:54 19° 90° (E) 04:11:22 29.400 - 29.500 MHz
PCSat 25 Jul 04:05:02 04:08:35 17° 321° (NW) 04:12:09 145.825 MHz
ISS 25 Jul 04:21:53 04:24:22 19° 355° (N) 04:26:51 145.800 FM
Oscar 16 25 Jul 04:26:02 04:28:30 14° 302° (WNW) 04:30:59 437.025 USB, Beacon 2401.1428
TMSAT-1 25 Jul 04:29:43 04:35:01 77° 286° (WNW) 04:40:18 436.925 FM
ITAMSAT 1 25 Jul 04:36:31 04:40:30 23° 297° (WNW) 04:44:27 435.822 SSB
Lituanica SAT-1 25 Jul 04:43:20 04:44:44 15° 19° (NNE) 04:46:07 437.275 MHz beacon
OPAL 25 Jul 04:44:52 04:49:25 37° 260° (W) 04:54:00 ?
AO-Echo 25 Jul 04:49:02 04:52:11 17° 300° (WNW) 04:55:17 ?
JAS-1B 25 Jul 04:51:04 05:00:19 52° 295° (WNW) 05:08:29 435.800 - 435.900 CW/SSB
Gurwin Techsat 1B 25 Jul 04:51:35 04:56:27 37° 292° (WNW) 05:01:17 435.225 FM
AO-27 25 Jul 04:55:15 04:58:20 16° 301° (WNW) 05:01:24 436.795 MHz FM
Uribyol 2 25 Jul 04:58:05 05:00:50 15° 301° (WNW) 05:03:34 436.500 FM
Uosat F 25 Jul 05:01:59 05:06:53 50° 100° (E) 05:11:44 435.120 FM
STRAND 1 25 Jul 05:24:12 05:26:52 14° 59° (ENE) 05:29:31 ?
KITSAT 1 25 Jul 05:24:23 05:25:17 10° 96° (E) 05:26:12 435.175 FM
Oscar 10/S400 25 Jul 05:46:19 07:03:43 38° 237° (WSW) 11:34:54 145.825 - 145.975 CW/USB, Beacon 145.810 USB
AO-7 25 Jul 05:51:20 05:59:44 90° 289° (WNW) 06:08:02 29.400 - 29.500 MHz
ISS 25 Jul 05:59:06 06:01:54 24° 15° (NNE) 06:04:43 145.800 FM
TMSAT-1 25 Jul 06:12:26 06:14:03 11° 304° (NW) 06:15:40 436.925 FM
JAS-2 25 Jul 06:12:36 06:16:51 19° 88° (E) 06:20:48 435.800 - 435.900 CW/SSB, 435.910 FM
Lituanica SAT-1 25 Jul 06:15:28 06:17:31 52° 216° (SW) 06:19:34 437.275 MHz beacon
Uosat F 25 Jul 06:41:35 06:45:18 21° 297° (WNW) 06:49:00 435.120 FM
JAS-1B 25 Jul 06:43:55 06:48:24 15° 318° (NW) 06:52:45 435.800 - 435.900 CW/SSB
MaSat-1 25 Jul 06:52:35 06:57:08 28° 51° (NE) 07:01:34 437.345 MHz
STRAND 1 25 Jul 07:00:12 07:05:22 82° 256° (WSW) 07:10:33 ?
Hamsat 25 Jul 07:03:11 07:07:29 76° 102° (ESE) 07:11:48 145.90 MHz
KITSAT 1 25 Jul 07:11:06 07:19:00 61° 115° (ESE) 07:26:57 435.175 FM
SO-67 25 Jul 07:17:31 07:19:28 14° 92° (E) 07:21:26 435.3500 MHz FM
ISS 25 Jul 07:35:35 07:38:58 88° 214° (SW) 07:42:20 145.800 FM
AO-7 25 Jul 07:45:24 07:51:28 23° 309° (NW) 07:57:31 29.400 - 29.500 MHz
JAS-2 25 Jul 07:56:26 08:02:36 61° 289° (WNW) 08:08:04 435.800 - 435.900 CW/SSB, 435.910 FM
Saudisat 1A 25 Jul 07:57:02 07:59:46 16° 110° (ESE) 08:02:31 436.775 MHz
MaSat-1 25 Jul 08:29:37 08:34:45 49° 250° (WSW) 08:39:40 437.345 MHz
Hamsat 25 Jul 08:41:31 08:42:51 11° 299° (WNW) 08:44:11 145.90 MHz
SO-67 25 Jul 08:49:31 08:52:40 33° 288° (WNW) 08:55:49 435.3500 MHz FM
Sapphire 25 Jul 08:51:16 08:52:41 11° 31° (NNE) 08:54:07 437.095 MHz 1200 baud AX-25 AFSK
KITSAT 1 25 Jul 09:07:26 09:14:49 38° 316° (NW) 09:22:16 435.175 FM
ISS 25 Jul 09:14:02 09:15:12 11° 230° (SW) 09:16:22 145.800 FM
HO-68 25 Jul 09:15:51 09:21:58 30° 95° (E) 09:28:01 435.675 MHz FM
PCSat 25 Jul 09:23:41 09:27:21 18° 40° (NE) 09:31:00 145.825 MHz
Saudisat 1A 25 Jul 09:34:33 09:38:54 58° 307° (NW) 09:43:18 436.775 MHz
JAS-2 25 Jul 09:45:21 09:46:11 10° 311° (NW) 09:46:59 435.800 - 435.900 CW/SSB, 435.910 FM
Oscar 11 25 Jul 09:49:47 09:52:39 17° 92° (E) 09:55:29 145.825 FM, Beacon 2401.500 USB
Sapphire 25 Jul 10:32:17 10:37:32 47° 53° (NE) 10:42:44 437.095 MHz 1200 baud AX-25 AFSK
UKube-1 25 Jul 10:35:01 10:39:24 81° 285° (WNW) 10:43:45 145.840 MHz, 145.915 MHz
HO-68 25 Jul 11:03:02 11:09:58 55° 293° (WNW) 11:16:52 435.675 MHz FM
PCSat 25 Jul 11:06:05 11:11:33 90° 60° (ENE) 11:16:58 145.825 MHz
KITSAT 1 25 Jul 11:08:35 11:13:01 15° 344° (NNW) 11:17:26 435.175 FM
Saudisat 1A 25 Jul 11:17:58 11:19:27 11° 328° (NNW) 11:20:55 436.775 MHz
Oscar 11 25 Jul 11:24:56 11:29:03 44° 288° (WNW) 11:33:10 145.825 FM, Beacon 2401.500 USB
FUNcube-1 25 Jul 11:34:45 11:38:56 87° 102° (ESE) 11:43:07 145.950 - 145.970 MHz USB
Oscar 19 25 Jul 12:01:08 12:01:38 10° 56° (NE) 12:02:09 437.125 CW, 437.150 USB
JAS-1B 25 Jul 12:02:43 12:04:57 11° 38° (NE) 12:07:13 435.800 - 435.900 CW/SSB
Sapphire 25 Jul 12:16:13 12:20:42 27° 252° (WSW) 12:25:09 437.095 MHz 1200 baud AX-25 AFSK
RS-15 25 Jul 12:17:40 12:22:30 14° 96° (E) 12:27:17 29.354 - 29.394 USB, Beacon 29.352 USB
Oscar 16 25 Jul 12:25:28 12:28:55 19° 61° (ENE) 12:32:22 437.025 USB, Beacon 2401.1428
ITAMSAT 1 25 Jul 12:39:51 12:41:41 12° 56° (ENE) 12:43:31 435.822 SSB
AO-Echo 25 Jul 12:46:41 12:49:24 14° 58° (ENE) 12:52:07 ?
PCSat 25 Jul 12:51:56 12:54:08 13° 258° (WSW) 12:56:20 145.825 MHz
HO-68 25 Jul 12:53:54 12:56:09 12° 313° (NW) 12:58:23 435.675 MHz FM
AO-27 25 Jul 12:56:17 12:59:35 17° 60° (ENE) 13:02:53 436.795 MHz FM
Uribyol 2 25 Jul 12:58:25 13:01:54 19° 61° (ENE) 13:05:23 436.500 FM
KITSAT 1 25 Jul 13:08:09 13:12:32 15° 16° (NNE) 13:16:54 435.175 FM
SO-50 25 Jul 13:25:35 13:29:41 37° 116° (ESE) 13:33:53 436.795 FM
Oscar 19 25 Jul 13:34:59 13:40:03 73° 74° (ENE) 13:45:10 437.125 CW, 437.150 USB
